[[{"header":{"parameterUnit":"m.s-1","parameterCategory":1,"la1":30.2991,"la2":30.254,"lo1":-89.0895,"lo2":-89.0444,"dy":0.0017,"dx":0.0017,"nx":28,"ny":28,"refTime":"2023-11-16T03:00:00:Z","depth":0,"parameterNumber":2,"parameterNumberName":"U-component_of_WINDS"},"data":[0,0,0,0,0,0,0,0,0,0,0,0,0,0,0,0,0,0,0,0,0,0,0,0,0,0,0,0,0,0,0,0,0,0,0,0,0,0,0,0,0,0,0,0,0,0,0,0,0,0,0,0,0,0,0,0,0,0,-4.5016,-4.5018,0,-4.516,-4.5162,-4.5164,-4.5089,-4.5085,-4.5081,-4.5078,-4.523,-4.5238,-4.5245,0,0,0,0,0,0,0,0,0,0,0,0,0,-4.4683,-4.4689,-4.5016,-4.5018,-4.502,-4.516,-4.5162,-4.5164,-4.509,-4.5085,-4.508,-4.5076,-4.5228,-4.5237,-4.5246,0,0,0,0,0,0,0,0,0,0,0,0,0,-4.4827,-4.4691,-4.5016,-4.5,-4.4999,-4.516,-4.5162,-4.5164,-4.5091,-4.5085,-4.5079,-4.5074,-4.5225,-4.5236,-4.5247,-4.5434,0,0,-4.5282,-4.5287,0,0,0,0,0,0,0,0,-4.4819,-4.484,-4.5,-4.5001,-4.5001,-4.5101,-4.51,-4.5255,-4.5092,-4.5056,-4.5078,-4.5071,-4.5192,-4.5206,-4.5246,-4.5441,-4.5447,-4.5283,-4.529,-4.5295,-4.5299,0,0,0,0,0,0,0,-4.4809,-4.4833,-4.5073,-4.5003,-4.5003,-4.4987,-4.5001,-4.5129,-4.5155,-4.5059,-4.5054,-4.5072,-4.5192,-4.5235,-4.5249,-4.545,-4.5283,-4.5293,-4.53,-4.5305,-4.5807,-4.5814,0,0,0,0,0,0,-4.4799,-4.4825,-4.5069,-4.5078,-4.4894,-4.4998,-4.5013,-4.5075,-4.5153,-4.516,-4.5076,-4.5068,-4.5218,-4.5236,-4.5254,-4.548,-4.5295,-4.5306,-4.5313,-4.5801,-4.5809,-4.5816,0,0,0,0,0,0,-4.4793,-4.4822,-4.5063,-4.495,-4.498,-4.5009,-4.5079,-4.5081,-4.5124,-4.5166,-4.5171,-4.5116,-4.5214,-4.5238,-4.539,-4.5484,-4.5311,-4.5322,-4.5793,-4.5803,-4.5812,-4.5931,0,0,0,0,0,0,-4.4783,-4.482,-4.4889,-4.4952,-4.4986,-4.5195,-4.5084,-4.5087,-4.5143,-4.5133,-4.5205,-4.5211,-4.5212,-4.5373,-4.5401,-4.5496,-4.5331,-4.5785,-4.5798,-4.5809,-4.5919,-4.5943,-4.5964,0,0,0,0,0,-4.4772,-4.4918,-4.4893,-4.4923,-4.5073,-4.52,-4.522,-4.5216,-4.5151,-4.5223,-4.525,-4.5209,-4.5468,-4.5389,-4.542,-4.552,-4.5779,-4.5794,-4.5808,-4.5908,-4.5938,-4.5964,0,0,0,0,0,0,-4.4867,-4.4925,-4.4899,-4.5069,-4.513,-4.5187,-4.5277,-4.5248,-4.5329,-4.5317,-4.531,-4.5327,-4.5485,-4.5517,-4.5428,-4.5706,-4.5614,-4.5636,-4.568,-4.5708,-4.5731,-4.5721,-4.534,0,0,0,0,0,-4.4907,-4.5004,-4.505,-4.5196,-4.5228,-4.5248,-4.5303,-4.5295,-4.5358,-4.5384,-4.5422,-4.5487,-4.5584,-4.5647,-4.5738,-4.5922,-4.5938,-4.6006,-4.6029,-4.6048,-4.6067,-4.617,-4.6202,-4.5864,-4.5863,-4.5863,0,0,-4.4992,-4.5036,-4.5098,-4.5217,-4.5263,-4.5365,-4.527,-4.5382,-4.5459,-4.5401,-4.5548,-4.5578,-4.565,-4.582,-4.5896,-4.5852,-4.6164,-4.6066,-4.6081,-4.6091,-4.6188,-4.6221,-4.6249,-4.5873,-4.5872,-4.587,0,0,-4.5201,-4.5242,-4.537,-4.5418,-4.5488,-4.5501,-4.5531,-4.5593,-4.5611,-4.5757,-4.5717,-4.5809,-4.5974,-4.6028,-4.6077,-4.6307,-4.6273,-4.6336,-4.6457,-4.6557,-4.6584,-4.6608,-4.6693,-4.6723,-4.6355,-4.6356,-4.6356,0,-4.5298,-4.5449,-4.5439,-4.5555,-4.561,-4.5561,-4.5691,-4.5739,-4.5836,-4.5876,-4.5824,-4.6032,-4.6076,-4.6259,-4.6315,-4.6356,-4.6393,-4.633,-4.6581,-4.6604,-4.6626,-4.6708,-4.6739,-4.6363,-4.6362,-4.6361,-4.6361,0,-4.5568,-4.5673,-4.5767,-4.5862,-4.5927,-4.6049,-4.606,-4.6127,-4.6113,-4.6132,-4.6283,-4.6335,-4.6436,-4.6478,-4.6466,-4.6661,-4.6631,-4.658,-4.6488,-4.6666,-4.6743,-4.6773,-4.6374,-4.6371,-4.6369,-4.6367,0,0,-4.5841,-4.5928,-4.5963,-4.6007,-4.6081,-4.6164,-4.6285,-4.6383,-4.6442,-4.6511,-4.6615,-4.6756,-4.6709,-4.6765,-4.6758,-4.6846,-4.7029,-4.6785,-4.6786,-4.6831,-4.725,-4.729,-4.7326,-4.7006,-4.7011,-4.7016,-4.7245,0,-4.6057,-4.6267,-4.6262,-4.6459,-4.6558,-4.6513,-4.6619,-4.6678,-4.6699,-4.6787,-4.681,-4.6912,-4.6841,-4.6875,-4.6959,-4.6989,-4.7113,-4.6971,-4.7105,-4.711,-4.7092,-4.7365,-4.7408,-4.7622,-4.7274,-4.7279,-4.7283,0,-4.6336,-4.6414,-4.662,-4.6682,-4.6723,-4.6819,-4.6909,-4.6993,-4.706,-4.7069,-4.7132,-4.7112,-4.7237,-4.714,-4.7315,-4.7219,-4.7273,-4.7296,-4.7304,-4.7319,-4.7209,-4.7391,-4.7689,-4.7723,-4.7329,-4.7326,-4.7322,0,-4.6519,-4.6675,-4.6819,-4.6857,-4.6932,-4.7,-4.7035,-4.7095,-4.7155,-4.7235,-4.7274,-4.7368,-4.742,-4.7494,-4.7501,-4.7429,-4.7679,-4.7581,-4.7693,-4.7693,-4.775,-4.7747,-4.8064,-4.778,-4.7779,-4.7779,-4.7778,0,-4.6762,-4.6891,-4.6902,-4.6992,-4.7135,-4.7129,-4.7272,-4.7301,-4.7355,-4.7451,-4.7418,-4.7509,-4.7511,-4.7605,-4.7611,-4.7757,-4.778,-4.7793,-4.7794,-4.7798,-4.7797,-4.7836,-4.7822,-4.7787,-4.7785,-4.7784,-4.7782,0,-4.6992,-4.7004,-4.7159,-4.7217,-4.7234,-4.7338,-4.7389,-4.7475,-4.7492,-4.7614,-4.7642,-4.767,-4.7779,-4.7793,-4.792,-4.7924,-4.8101,-4.8084,-4.8079,-4.8077,-4.8189,-4.818,-4.8546,-4.8595,-4.8275,-4.8278,-4.8281,0,-4.7147,-4.7245,-4.7314,-4.7375,-4.7413,-4.7512,-4.7572,-4.757,-4.7635,-4.7719,-4.7796,-4.7901,-4.7985,-4.8162,-4.8195,-4.8293,-4.8281,-4.8402,-4.8295,-4.8297,-4.8287,-4.8282,-4.8293,-4.8424,-4.8427,-4.843,-4.8432,0,-4.7424,-4.7425,-4.7513,-4.7604,-4.7677,-4.7749,-4.7817,-4.7869,-4.7876,-4.7951,-4.8061,-4.8126,-4.8256,-4.8362,-4.8459,-4.8497,-4.8468,-4.8465,-4.8497,-4.8504,-4.8498,-4.8506,-4.8138,-4.8458,-4.8455,-4.8453,-4.8452,-4.8451,-4.7623,-4.7709,-4.7771,-4.7871,-4.7921,-4.7985,-4.807,-4.8097,-4.8189,-4.8293,-4.8286,-4.8409,-4.8475,-4.8602,-4.8647,-4.8744,-4.8704,-4.875,-4.8762,-4.8774,-4.8787,-4.848,-4.8761,-4.8761,-4.876,-4.8759,-4.8759,0,-4.79,-4.7938,-4.803,-4.8125,-4.8204,-4.8166,-4.824,-4.831,-4.8417,-4.848,-4.8563,-4.8692,-4.8795,-4.8836,-4.8937,-4.9008,-4.8997,-4.9035,-4.9032,-4.9042,-4.8815,-4.8778,-4.9042,-4.9042,-4.9042,-4.9042,-4.9042,-4.9042,-4.8054,-4.8199,-4.8208,-4.8378,-4.8415,-4.8533,-4.8579,-4.8639,-4.8689,-4.8833,-4.8918,-4.8943,-4.8999,-4.9105,-4.9198,-4.9208,-4.9249,-4.9293,-4.9298,-4.9086,-4.9057,-4.903,-4.8996,-4.9301,-4.9302,-4.9517,-4.9519,-4.952]},{"header":{"parameterUnit":"m.s-1","parameterCategory":1,"la1":30.2991,"la2":30.254,"lo1":-89.0895,"lo2":-89.0444,"dy":0.0017,"dx":0.0017,"nx":28,"ny":28,"refTime":"2023-11-16T03:00:00:Z","depth":0,"parameterNumber":3,"parameterNumberName":"V-component_of_WINDS"},"data":[0,0,0,0,0,0,0,0,0,0,0,0,0,0,0,0,0,0,0,0,0,0,0,0,0,0,0,0,0,0,0,0,0,0,0,0,0,0,0,0,0,0,0,0,0,0,0,0,0,0,0,0,0,0,0,0,0,0,-5.0268,-5.0268,0,-5.0234,-5.0233,-5.0233,-5.0137,-5.0135,-5.0133,-5.0131,-5.0097,-5.0098,-5.0099,0,0,0,0,0,0,0,0,0,0,0,0,0,-5.0253,-5.0253,-5.0268,-5.0268,-5.0267,-5.0234,-5.0233,-5.0233,-5.0138,-5.0135,-5.0133,-5.013,-5.0097,-5.0098,-5.0099,0,0,0,0,0,0,0,0,0,0,0,0,0,-5.0243,-5.0254,-5.0268,-5.0216,-5.0211,-5.0234,-5.0233,-5.0233,-5.0138,-5.0135,-5.0132,-5.0129,-5.0096,-5.0098,-5.0099,-5.0171,0,0,-5.0104,-5.0105,0,0,0,0,0,0,0,0,-5.0244,-5.0244,-5.0224,-5.022,-5.0214,-5.0187,-5.0215,-5.0212,-5.0139,-5.0166,-5.0131,-5.0128,-5.013,-5.0128,-5.0128,-5.0169,-5.0168,-5.0104,-5.0105,-5.0106,-5.0106,0,0,0,0,0,0,0,-5.0244,-5.0245,-5.0255,-5.0224,-5.0218,-5.0194,-5.0189,-5.0214,-5.0166,-5.0163,-5.0156,-5.0153,-5.0126,-5.0127,-5.0127,-5.0167,-5.0104,-5.0106,-5.0107,-5.0107,-5.0264,-5.0267,0,0,0,0,0,0,-5.0252,-5.0246,-5.0256,-5.0254,-5.0221,-5.0197,-5.0192,-5.0199,-5.0165,-5.0157,-5.0156,-5.0149,-5.0126,-5.0125,-5.0125,-5.0206,-5.0106,-5.0107,-5.0108,-5.0261,-5.0265,-5.0268,0,0,0,0,0,0,-5.0253,-5.0254,-5.0257,-5.0248,-5.0246,-5.0201,-5.0209,-5.0199,-5.02,-5.0159,-5.015,-5.0166,-5.0124,-5.0123,-5.016,-5.0203,-5.0108,-5.0109,-5.0257,-5.0262,-5.0266,-5.0368,0,0,0,0,0,0,-5.0252,-5.0255,-5.0282,-5.0249,-5.0247,-5.0293,-5.0212,-5.0201,-5.0203,-5.0194,-5.0166,-5.0159,-5.0121,-5.0158,-5.0162,-5.0204,-5.0111,-5.0253,-5.0259,-5.0265,-5.0361,-5.0376,-5.0389,0,0,0,0,0,-5.0252,-5.0312,-5.0283,-5.0285,-5.028,-5.0295,-5.0294,-5.0249,-5.0207,-5.0233,-5.0207,-5.016,-5.0198,-5.0163,-5.0166,-5.0209,-5.025,-5.0257,-5.0264,-5.0355,-5.0373,-5.0389,0,0,0,0,0,0,-5.0352,-5.0307,-5.0275,-5.0326,-5.0315,-5.0279,-5.0311,-5.027,-5.0271,-5.0263,-5.0207,-5.0201,-5.0246,-5.0231,-5.0192,-5.0276,-5.0216,-5.0224,-5.0284,-5.0301,-5.0315,-5.0318,-5.0112,0,0,0,0,0,-5.038,-5.0396,-5.0356,-5.0405,-5.0401,-5.0358,-5.0363,-5.0328,-5.0315,-5.031,-5.0286,-5.0276,-5.0285,-5.0292,-5.0299,-5.0358,-5.0351,-5.039,-5.0404,-5.0416,-5.0423,-5.0453,-5.0469,-5.0292,-5.0292,-5.0292,0,0,-5.0438,-5.0416,-5.0429,-5.0425,-5.0412,-5.043,-5.0354,-5.0377,-5.0389,-5.0314,-5.0346,-5.0329,-5.0313,-5.0361,-5.0381,-5.035,-5.047,-5.0425,-5.0435,-5.0436,-5.0462,-5.0479,-5.0494,-5.0297,-5.0296,-5.0295,0,0,-5.0553,-5.0538,-5.0576,-5.0565,-5.0546,-5.0517,-5.0526,-5.0496,-5.0481,-5.0513,-5.0456,-5.047,-5.0488,-5.0479,-5.0476,-5.0586,-5.0543,-5.059,-5.0664,-5.0693,-5.0707,-5.0719,-5.0757,-5.0772,-5.0598,-5.0598,-5.0598,0,-5.0627,-5.0652,-5.0602,-5.0627,-5.0626,-5.0558,-5.0596,-5.0588,-5.0573,-5.0575,-5.054,-5.056,-5.0544,-5.0589,-5.0615,-5.0616,-5.0625,-5.0593,-5.0709,-5.072,-5.0731,-5.0767,-5.0782,-5.0604,-5.0603,-5.0603,-5.0602,0,-5.0744,-5.0762,-5.0795,-5.0781,-5.0784,-5.0817,-5.0771,-5.078,-5.0746,-5.072,-5.0753,-5.0732,-5.0732,-5.074,-5.0707,-5.078,-5.0761,-5.0719,-5.0657,-5.0755,-5.0787,-5.0801,-5.0612,-5.061,-5.0608,-5.0607,0,0,-5.0921,-5.0878,-5.0891,-5.0883,-5.0858,-5.087,-5.0899,-5.0899,-5.0907,-5.09,-5.0922,-5.0938,-5.0898,-5.0895,-5.0861,-5.0886,-5.0974,-5.084,-5.0839,-5.0865,-5.1051,-5.1083,-5.11,-5.0945,-5.0947,-5.0949,-5.1052,0,-5.1029,-5.1075,-5.103,-5.1085,-5.11,-5.1035,-5.106,-5.1047,-5.1023,-5.1032,-5.1006,-5.1018,-5.0965,-5.0962,-5.0985,-5.0958,-5.101,-5.095,-5.0965,-5.0966,-5.097,-5.1117,-5.1151,-5.125,-5.1065,-5.1067,-5.1069,0,-5.116,-5.1157,-5.1214,-5.1183,-5.1187,-5.1211,-5.1206,-5.1216,-5.12,-5.118,-5.1177,-5.1135,-5.116,-5.1101,-5.1135,-5.1096,-5.1099,-5.1087,-5.1089,-5.1089,-5.1023,-5.112,-5.128,-5.1295,-5.1089,-5.1087,-5.1086,0,-5.1283,-5.1293,-5.1327,-5.1323,-5.1288,-5.1306,-5.1292,-5.1273,-5.1275,-5.1271,-5.1272,-5.1272,-5.1272,-5.1272,-5.1231,-5.1191,-5.127,-5.1208,-5.1255,-5.1256,-5.1274,-5.1274,-5.1437,-5.1278,-5.1277,-5.1277,-5.1277,0,-5.1407,-5.1444,-5.1382,-5.1403,-5.1442,-5.139,-5.1431,-5.141,-5.1393,-5.1409,-5.1353,-5.137,-5.1314,-5.1325,-5.1292,-5.1325,-5.1326,-5.1311,-5.1302,-5.1316,-5.1318,-5.1317,-5.1309,-5.1281,-5.128,-5.1279,-5.1279,0,-5.1551,-5.1511,-5.1544,-5.1508,-5.15,-5.153,-5.1499,-5.1517,-5.1489,-5.151,-5.1512,-5.1469,-5.1478,-5.1437,-5.1439,-5.1417,-5.1467,-5.1447,-5.1472,-5.1466,-5.1515,-5.1511,-5.1683,-5.1703,-5.1532,-5.1534,-5.1535,0,-5.1633,-5.166,-5.1626,-5.1632,-5.1621,-5.1633,-5.1634,-5.1584,-5.1588,-5.1571,-5.1591,-5.1596,-5.1596,-5.1614,-5.1583,-5.1584,-5.1563,-5.1624,-5.1563,-5.1576,-5.1563,-5.1562,-5.1564,-5.1636,-5.1638,-5.164,-5.1641,0,-5.1783,-5.1761,-5.1765,-5.1762,-5.1765,-5.1761,-5.1753,-5.1761,-5.1707,-5.1714,-5.1722,-5.1723,-5.1725,-5.173,-5.1725,-5.1711,-5.1667,-5.1661,-5.1671,-5.1686,-5.1699,-5.1692,-5.1506,-5.1657,-5.1655,-5.1654,-5.1653,-5.1653,-5.1897,-5.1917,-5.1896,-5.1903,-5.1891,-5.1884,-5.1899,-5.1872,-5.1878,-5.1875,-5.1845,-5.1859,-5.1841,-5.1829,-5.1819,-5.183,-5.1801,-5.1817,-5.1821,-5.1826,-5.1834,-5.1698,-5.1829,-5.1828,-5.1828,-5.1827,-5.1827,0,-5.2043,-5.2026,-5.2032,-5.2022,-5.2027,-5.1984,-5.1973,-5.198,-5.1992,-5.1979,-5.198,-5.199,-5.1994,-5.1963,-5.1963,-5.1977,-5.1957,-5.1979,-5.1977,-5.1974,-5.186,-5.185,-5.1995,-5.1995,-5.1995,-5.1995,-5.1995,-5.1995,-5.2119,-5.2151,-5.2127,-5.2152,-5.2134,-5.2147,-5.2144,-5.2137,-5.2126,-5.2138,-5.2141,-5.212,-5.21,-5.2097,-5.21,-5.209,-5.2093,-5.2121,-5.2105,-5.1999,-5.1983,-5.1967,-5.1957,-5.2122,-5.2122,-5.2218,-5.2219,-5.222]}]]